Content
SEND FEEDBACK

Daily
Averages
Monthly
Summary
Switzerland

GENEVA, SWITZERLAND


Home > Europe > Switzerland
Elevation: 1364 feet     Latitude: 46 15N     Longitude: 006 08E

WEATHER
 
SELECT A DAY
Number of Records: 305,659;   Date Range: 7/1/96 - 7/26/14
 
SHARE

PRINT THIS DATA

[ ← Previous Day ]
WEATHER ALMANAC - MARCH 17, 2013
[ Next Day → ]
[ °C ]   °F
Weather ElementAverageHighLow
Temperature40.9 °F46.4 °F (5:20 pm)35.6 °F (5:20 am)
Dewpoint36.3 °F39.2 °F (12:50 pm)33.8 °F (12:20 am)
Humidity82.3 %100 % (5:20 am)57 % (7:00 pm)
Barometer29.59 in29.82 in (1:00 am)29.47 in (4:50 pm)
Wind Speed4.6 mph11.5 mph (1:20 pm)
Weather ElementAverage
Visibility6.3 mi
Wind DirectionSE (136.5 °)

Weather ElementTotal
Precipitation---
Heating Degree Days24 (Base 65)
Averaged from 66 records on March 17, 2013
WEATHER CONDITIONS BREAKOUT
WIND DIRECTION BREAKOUT
WEATHER BY HOUR - MARCH 17, 2013
[ °C ]   °F
Local TimeTemperatureDewpointHumidityBarometerVisibilityWind DirectionWind SpeedGust SpeedPrecipitationEventsConditions
12:20 AM41.0 °F33.8 °F76 %29.80 in6.2 miSSW (200°)10.4 mphRainLight Rain
12:50 AM41.0 °F33.8 °F76 %29.77 in6.2 miSW (230°)10.4 mphRainLight Rain
1:00 AM40.0 °F35.0 °F75 %29.82 in16.0 miWSW (240°)9.2 mphRainLight Rain
1:20 AM39.2 °F35.6 °F87 %29.77 in6.2 miWSW (240°)9.2 mphRainLight Rain
1:50 AM39.2 °F35.6 °F87 %29.77 in6.2 miSW (230°)9.2 mphRainLight Rain
2:00 AM38.0 °F35.0 °F84 %29.81 inWSW (240°)10.4 mph
2:50 AM37.4 °F33.8 °F87 %29.74 in5.0 miWest (280°)4.6 mphRainLight Rain
3:00 AM37.0 °F34.0 °F85 %29.79 inWest (280°)4.6 mph
3:20 AM37.4 °F33.8 °F87 %29.74 in5.0 miWNW (290°)4.6 mphRainLight Rain
3:50 AM37.4 °F33.8 °F87 %29.71 in6.2 miVariable1.2 mphRainLight Rain
4:20 AM37.4 °F33.8 °F87 %29.68 in6.2 miVariable2.3 mphRainLight Rain
4:50 AM37.4 °F35.6 °F93 %29.68 in6.2 miCalmOvercast
5:00 AM37.0 °F35.0 °F88 %29.73 inNorth (10°)1.2 mph
5:20 AM35.6 °F35.6 °F100 %29.65 in6.2 miCalmRainLight Rain
5:50 AM35.6 °F35.6 °F100 %29.65 in6.2 miEast (90°)4.6 mphRainLight Rain
6:00 AM37.0 °F35.0 °F92 %29.71 inNE (50°)3.5 mph
6:20 AM37.4 °F35.6 °F93 %29.65 in6.2 miCalmOvercast
6:50 AM37.4 °F35.6 °F93 %29.65 in5.6 miVariable1.2 mphRainLight Rain
7:00 AM37.0 °F36.0 °F92 %29.70 in6.0 miNNE (20°)2.3 mphRainLight Rain
7:20 AM37.4 °F35.6 °F93 %29.65 in5.6 miVariable1.2 mphOvercast
7:50 AM37.4 °F35.6 °F93 %29.65 in5.6 miVariable2.3 mphOvercast
8:00 AM38.0 °F35.0 °F86 %29.70 inNorth (10°)1.2 mph
8:20 AM37.4 °F35.6 °F93 %29.62 in5.6 miVariable1.2 mphMostly Cloudy
8:50 AM39.2 °F35.6 °F87 %29.62 in6.2 miVariable2.3 mphMostly Cloudy
9:00 AM39.0 °F35.0 °F80 %29.68 inNE (50°)3.5 mph
9:20 AM39.2 °F35.6 °F87 %29.62 in6.2 miVariable1.2 mphMostly Cloudy
9:50 AM41.0 °F37.4 °F87 %29.59 in6.2 miVariable2.3 mphOvercast
10:20 AM41.0 °F37.4 °F87 %29.59 in6.2 miVariable2.3 mphOvercast
10:50 AM41.0 °F35.6 °F81 %29.59 in6.2 miVariable2.3 mphOvercast
11:00 AM41.0 °F36.0 °F75 %29.63 inNNE (20°)2.3 mph
11:20 AM41.0 °F35.6 °F81 %29.59 in6.2 miVariable1.2 mphRainLight Rain
11:50 AM41.0 °F35.6 °F81 %29.59 in6.2 miVariable2.3 mphRainLight Rain
12:00 PM41.0 °F36.0 °F77 %29.62 inNorth (10°)2.3 mph
12:20 PM42.8 °F37.4 °F81 %29.56 in5.6 miVariable1.2 mphRainLight Rain
12:50 PM42.8 °F39.2 °F87 %29.56 in5.0 miSW (220°)3.5 mphRainLight Rain
1:00 PM43.0 °F37.0 °F73 %29.60 in5.0 miSSW (210°)8.1 mphRainLight Rain
1:20 PM42.8 °F39.2 °F87 %29.56 in5.6 miSSW (210°)11.5 mphRainLight Rain
1:50 PM42.8 °F37.4 °F81 %29.56 in5.6 miSW (230°)11.5 mphRainLight Rain
2:00 PM42.0 °F38.0 °F79 %29.59 inWSW (240°)8.1 mph
2:20 PM42.8 °F37.4 °F81 %29.53 in6.2 miWSW (240°)8.1 mphRainLight Rain
2:50 PM42.8 °F39.2 °F87 %29.50 in6.2 miWSW (250°)5.8 mphRainLight Rain
3:00 PM43.0 °F37.0 °F74 %29.55 inWest (270°)4.6 mph
3:20 PM42.8 °F37.4 °F81 %29.50 in6.2 miVariable2.3 mphRainLight Rain
3:50 PM44.6 °F39.2 °F81 %29.50 in6.2 miVariable2.3 mphRainLight Rain
4:20 PM44.6 °F39.2 °F81 %29.50 in6.2 miWest (270°)3.5 mphRainLight Rain
4:50 PM44.6 °F37.4 °F76 %29.47 in6.2 miWest (280°)5.8 mphRainLight Rain
5:00 PM45.0 °F36.0 °F61 %29.51 inWest (280°)3.5 mph
5:20 PM46.4 °F37.4 °F71 %29.47 in6.2 miVariable2.3 mphRainLight Rain
5:50 PM44.6 °F37.4 °F76 %29.47 in6.2 miVariable3.5 mphRainLight Rain
6:00 PM45.0 °F38.0 °F68 %29.51 inWest (270°)3.5 mph
6:20 PM44.6 °F37.4 °F76 %29.47 in6.2 miVariable4.6 mphRainLight Rain
6:50 PM44.6 °F37.4 °F76 %29.47 in6.2 miWest (280°)2.3 mphRainLight Rain
7:00 PM46.0 °F36.0 °F57 %29.51 in9.0 miWest (260°)2.3 mphRainLight Rain
7:20 PM44.6 °F35.6 °F71 %29.47 in6.2 miVariable1.2 mphRainLight Rain
7:50 PM44.6 °F37.4 °F76 %29.47 in6.2 miSW (220°)8.1 mphRainLight Rain
8:00 PM44.0 °F36.0 °F65 %29.52 inWSW (240°)6.9 mph
8:20 PM42.8 °F37.4 °F81 %29.47 in6.2 miWest (260°)4.6 mphRainLight Rain
8:50 PM42.8 °F37.4 °F81 %29.47 in6.2 miWSW (250°)5.8 mphRainLight Rain
9:00 PM42.0 °F36.0 °F74 %29.52 inWest (260°)8.1 mph
9:20 PM42.8 °F37.4 °F81 %29.47 in6.2 miWSW (250°)8.1 mphRainLight Rain
9:50 PM41.0 °F37.4 °F87 %29.47 in6.2 miWSW (250°)8.1 mphRainLight Rain
10:20 PM41.0 °F37.4 °F87 %29.47 in6.2 miWest (260°)6.9 mphRainLight Rain
10:50 PM41.0 °F37.4 °F87 %29.47 in6.2 miWest (270°)6.9 mphRainLight Rain
11:00 PM41.0 °F36.0 °F78 %29.51 inWest (260°)8.1 mph
11:20 PM41.0 °F37.4 °F87 %29.47 in6.2 miWest (260°)8.1 mphRainLight Rain
11:50 PM41.0 °F37.4 °F87 %29.47 in5.6 miSW (230°)8.1 mphRainRain
Hourly data recorded from LSGG, located miles away from Geneva, Switzerland







STORIES FROM OUR PARTNERS